Latest Weather Observations for Bega

IDN60801

Issued at 10:35 pm EDT Friday 28 November 2014 (issued every 30 minutes, with the page automatically refreshed every 10 minutes)

About weather observations | Map of weather stations | Latest weather observations for NSW | Other Formats
Station Details ID: 069139 Name: BEGA AWS Lat: -36.67 Lon: 149.82 Height: 41.0 m
Data from the previous 72 hours. | See also: Recent months at Bega
Date/Time
EDT
Temp
°C
App
Temp
°C
Dew
Point
Rel
Hum
%
Delta-T
°C
Wind Press
QNH
hPa
Press
MSL
hPa
Rain
since 9 am
mm
Dir
 
Spd
km/h
Gust
km/h
Spd
kts
Gust
kts
28/10:30pm 16.3 16.9 11.9 75 2.4 CALM 0 0 0 0 1020.8 1020.7 0.0
28/10:00pm 16.4 16.6 11.8 74 2.5 NNE 2 6 1 3 1020.8 1020.7 0.0
28/09:30pm 16.6 16.3 11.5 72 2.8 N 4 7 2 4 1020.9 1020.8 0.0
28/09:00pm 16.5 15.6 11.4 72 2.8 N 7 11 4 6 1020.5 1020.4 0.0
28/08:30pm 17.3 15.7 11.6 69 3.1 NNE 11 15 6 8 1020.5 1020.4 0.0
28/08:00pm 18.0 15.3 11.6 66 3.5 NNE 17 22 9 12 1020.4 1020.3 0.0
28/07:30pm 18.4 15.8 11.9 66 3.6 NE 17 24 9 13 1020.2 1020.1 0.0
28/07:00pm 19.1 15.9 11.9 63 4.0 NE 20 30 11 16 1020.1 1020.0 0.0
28/06:30pm 19.7 16.1 12.0 61 4.3 ENE 22 32 12 17 1019.9 1019.8 0.0
28/06:00pm 20.1 16.4 11.6 58 4.7 E 22 35 12 19 1019.7 1019.6 0.0
28/05:30pm 20.9 16.5 11.8 56 5.1 ENE 26 35 14 19 1019.5 1019.4 0.0
28/05:00pm 21.4 17.1 12.0 55 5.3 ENE 26 33 14 18 1019.5 1019.4 0.0
28/04:30pm 21.7 17.3 11.7 53 5.6 ENE 26 35 14 19 1019.5 1019.4 0.0
28/04:00pm 22.3 18.5 12.3 53 5.7 ENE 24 35 13 19 1019.5 1019.4 0.0
28/03:30pm 22.5 18.2 12.2 52 5.8 NE 26 35 14 19 1019.7 1019.6 0.0
28/03:00pm 22.6 18.3 12.0 51 6.0 E 26 35 14 19 1020.1 1020.0 0.0
28/02:30pm 22.8 18.4 11.8 50 6.2 E 26 33 14 18 1020.2 1020.1 0.0
28/02:00pm 23.1 18.7 11.8 49 6.4 E 26 37 14 20 1020.4 1020.3 0.0
28/01:30pm 23.6 20.1 12.3 49 6.4 ENE 22 32 12 17 1020.9 1020.8 0.0
28/01:00pm 23.4 19.7 12.7 51 6.1 ENE 24 33 13 18 1021.3 1021.2 0.0
28/12:30pm 22.9 20.5 12.8 53 5.8 ENE 17 26 9 14 1021.6 1021.5 0.0
28/12:00pm 21.8 19.8 11.5 52 5.7 NE 13 19 7 10 1022.0 1021.9 0.0
28/11:30am 21.7 19.4 11.7 53 5.6 ENE 15 22 8 12 1022.4 1022.3 0.0
28/11:00am 22.3 19.6 11.7 51 5.9 E 17 22 9 12 1022.5 1022.4 0.0
28/10:30am 20.4 17.7 10.2 52 5.5 NE 15 20 8 11 1022.9 1022.8 0.0
28/10:00am 19.9 18.7 11.7 59 4.5 NE 9 19 5 10 1023.2 1023.1 0.0
28/09:30am 18.8 17.2 11.6 63 4.0 NE 11 17 6 9 1023.5 1023.4 0.0
28/09:00am 17.9 17.6 12.6 71 2.9 ENE 6 9 3 5 1023.8 1023.7 0.0
28/08:30am 15.6 14.9 12.0 79 2.0 SSE 7 9 4 5 1023.9 1023.8 0.0
28/08:00am 13.5 13.6 11.4 87 1.1 S 2 6 1 3 1023.9 1023.8 0.0
28/07:30am 11.5 11.9 11.2 98 0.2 CALM 0 0 0 0 1023.8 1023.7 0.0
28/07:00am 10.0 10.0 9.9 99 0.1 CALM 0 0 0 0 1023.6 1023.5 0.0
28/06:30am 9.6 9.5 9.5 99 0.0 CALM 0 0 0 0 1023.6 1023.5 0.0
28/06:00am 8.2 7.8 8.1 99 0.0 CALM 0 0 0 0 1023.4 1023.3 0.0
28/05:30am 8.8 8.5 8.7 99 0.0 CALM 0 0 0 0 1023.3 1023.2 0.0
28/05:00am 9.6 9.5 9.5 99 0.0 CALM 0 0 0 0 1023.1 1023.0 0.0
28/04:30am 10.0 9.2 9.7 98 0.2 NW 4 7 2 4 1023.0 1022.9 0.0
28/04:00am 9.8 8.6 9.5 98 0.1 SSW 6 9 3 5 1023.3 1023.2 0.0
28/03:30am 10.7 10.8 10.2 97 0.3 CALM 0 0 0 0 1023.1 1023.0 0.0
28/03:00am 11.2 11.3 10.1 93 0.6 CALM 0 0 0 0 1023.3 1023.2 0.0
28/02:30am 11.7 11.9 10.6 93 0.6 CALM 0 0 0 0 1023.6 1023.5 0.0
28/02:00am 12.1 12.3 10.7 91 0.7 CALM 0 0 0 0 1023.9 1023.8 0.0
28/01:30am 12.9 13.1 10.6 86 1.2 CALM 0 0 0 0 1024.1 1024.0 0.0
28/01:00am 13.4 13.6 10.4 82 1.6 CALM 0 0 0 0 1024.4 1024.3 0.0
28/12:30am 14.2 13.2 10.4 78 2.0 NNW 6 7 3 4 1024.5 1024.4 0.0
28/12:00am 14.5 13.5 10.9 79 1.9 NNW 7 9 4 5 1024.9 1024.8 0.0
 
Date/Time
EDT
Temp
°C
App
Temp
°C
Dew
Point
Rel
Hum
%
Delta-T
°C
Wind Press
QNH
hPa
Press
MSL
hPa
Rain
since 9 am
mm
Dir
 
Spd
km/h
Gust
km/h
Spd
kts
Gust
kts
27/11:30pm 15.5 15.9 11.1 75 2.4 CALM 0 0 0 0 1025.0 1024.9 0.0
27/11:00pm 15.6 15.9 11.0 74 2.4 CALM 0 0 0 0 1025.2 1025.1 0.0
27/10:30pm 15.7 14.7 10.9 73 2.6 NE 7 9 4 5 1025.2 1025.1 0.0
27/10:00pm 15.8 15.0 11.2 74 2.5 E 6 7 3 4 1025.4 1025.3 0.0
27/09:30pm 15.9 15.1 10.9 72 2.7 ENE 6 9 3 5 1025.2 1025.1 0.0
27/09:00pm 16.0 14.2 11.0 72 2.7 ENE 11 13 6 7 1025.1 1025.0 0.0
27/08:30pm 16.1 13.9 10.8 71 2.8 E 13 17 7 9 1024.9 1024.8 0.0
27/08:00pm 16.2 14.4 10.7 70 2.9 E 11 19 6 10 1024.7 1024.6 0.0
27/07:30pm 16.5 14.4 11.0 70 3.0 E 13 20 7 11 1024.6 1024.5 0.0
27/07:00pm 16.7 13.7 10.8 68 3.1 E 17 22 9 12 1024.2 1024.1 0.0
27/06:30pm 17.2 14.4 11.2 68 3.2 E 17 22 9 12 1023.9 1023.8 0.0
27/06:00pm 17.7 14.7 10.8 64 3.7 E 17 20 9 11 1023.4 1023.3 0.0
27/05:30pm 18.3 15.4 11.1 63 3.9 E 17 20 9 11 1023.3 1023.2 0.0
27/05:00pm 18.5 15.1 10.6 60 4.2 E 19 26 10 14 1023.3 1023.2 0.0
27/04:30pm 19.2 16.3 11.0 59 4.5 E 17 26 9 14 1023.0 1022.9 0.0
27/04:00pm 20.0 16.8 11.2 57 4.8 E 19 28 10 15 1023.1 1023.0 0.0
27/03:30pm 19.6 16.2 11.1 58 4.7 ESE 20 28 11 15 1023.1 1023.0 0.0
27/03:00pm 20.4 16.7 10.2 52 5.5 ESE 20 28 11 15 1023.1 1023.0 0.0
27/02:30pm 21.1 17.9 11.4 54 5.4 ESE 19 26 10 14 1023.1 1023.0 0.0
27/02:00pm 20.6 17.2 10.7 53 5.4 SE 19 26 10 14 1023.1 1023.0 0.0
27/01:30pm 20.2 16.2 10.6 54 5.2 E 22 30 12 16 1022.9 1022.8 0.0
27/01:00pm 20.8 18.2 12.0 57 4.9 E 17 26 9 14 1023.0 1022.9 0.0
27/12:30pm 20.3 17.0 11.0 55 5.1 E 19 28 10 15 1022.8 1022.7 0.0
27/12:00pm 19.8 16.5 11.0 57 4.8 ESE 19 28 10 15 1023.0 1022.9 0.0
27/11:30am 20.6 18.8 13.3 63 4.2 ESE 15 20 8 11 1022.9 1022.8 0.0
27/11:00am 19.1 17.3 12.1 64 3.9 NE 13 19 7 10 1023.1 1023.0 0.0
27/10:30am 18.6 17.3 11.2 62 4.0 E 9 15 5 8 1023.2 1023.1 0.0
27/10:00am 17.4 16.5 10.5 64 3.7 SSE 6 13 3 7 1023.4 1023.3 0.0
27/09:30am 16.6 15.3 9.8 64 3.6 S 7 11 4 6 1023.6 1023.5 0.0
27/09:00am 16.8 14.9 10.4 66 3.4 SSE 11 17 6 9 1023.8 1023.7 1.6
27/08:30am 16.7 15.4 11.2 70 3.0 SSE 9 19 5 10 1023.4 1023.3 1.6
27/08:00am 15.4 15.6 10.6 73 2.5 CALM 0 0 0 0 1023.5 1023.4 1.6
27/07:30am 15.2 14.9 11.6 79 1.9 S 4 7 2 4 1023.2 1023.1 1.6
27/07:00am 14.2 14.5 10.8 80 1.8 CALM 0 0 0 0 1023.0 1022.9 1.6
27/06:30am 13.6 13.5 10.8 83 1.5 SE 2 6 1 3 1022.7 1022.6 1.6
27/06:00am 13.3 13.7 11.2 87 1.1 CALM 0 0 0 0 1022.4 1022.3 1.6
27/05:30am 13.4 12.8 11.8 90 0.9 SSE 6 7 3 4 1022.1 1022.0 1.6
27/05:00am 13.6 12.8 11.8 89 1.0 SE 7 9 4 5 1021.8 1021.7 1.6
27/04:30am 14.6 14.7 14.0 96 0.3 SSE 6 11 3 6 1021.3 1021.2 1.6
27/04:00am 14.7 16.0 14.2 97 0.3 CALM 0 0 0 0 1021.1 1021.0 1.6
27/03:30am 14.6 15.9 14.1 97 0.3 CALM 0 0 0 0 1021.0 1020.9 1.6
27/03:00am 14.6 15.9 14.0 96 0.3 CALM 0 0 0 0 1021.1 1021.0 1.6
27/02:30am 14.7 14.7 14.1 96 0.3 SSW 7 11 4 6 1021.2 1021.1 1.6
27/02:00am 15.0 14.0 14.5 97 0.3 S 13 15 7 8 1021.4 1021.3 1.6
27/01:30am 15.2 13.8 14.6 96 0.3 N 15 20 8 11 1021.0 1020.9 1.6
27/01:00am 14.9 16.3 14.3 96 0.3 CALM 0 0 0 0 1021.8 1021.7 1.6
27/12:30am 14.9 15.0 14.4 97 0.3 S 7 7 4 4 1021.8 1021.7 1.6
27/12:00am 15.0 15.1 14.5 97 0.3 SSW 7 9 4 5 1022.0 1021.9 1.6
 
Date/Time
EDT
Temp
°C
App
Temp
°C
Dew
Point
Rel
Hum
%
Delta-T
°C
Wind Press
QNH
hPa
Press
MSL
hPa
Rain
since 9 am
mm
Dir
 
Spd
km/h
Gust
km/h
Spd
kts
Gust
kts
26/11:30pm 15.2 14.5 14.4 95 0.5 SW 11 15 6 8 1022.0 1021.9 1.4
26/11:00pm 15.4 14.9 14.8 96 0.3 SW 11 15 6 8 1022.1 1022.0 1.4
26/10:30pm 15.4 15.2 14.8 96 0.3 SSW 9 11 5 6 1022.1 1022.0 1.4
26/10:00pm 15.6 17.2 14.8 95 0.5 CALM 0 6 0 3 1021.9 1021.8 1.4
26/09:30pm 15.5 15.9 14.7 95 0.5 S 6 7 3 4 1021.7 1021.6 1.4
26/09:00pm 15.5 15.5 14.2 92 0.7 NW 7 9 4 5 1021.4 1021.3 1.4
26/08:30pm 15.7 16.4 13.4 86 1.3 SSW 2 7 1 4 1021.0 1020.9 1.4
26/08:00pm 17.0 17.5 13.9 82 1.8 ENE 4 6 2 3 1020.9 1020.8 0.2
26/07:30pm 17.5 16.5 12.4 72 2.8 ENE 9 11 5 6 1020.5 1020.4 0.0
26/07:00pm 17.8 16.5 12.5 71 2.9 ENE 11 13 6 7 1020.0 1019.9 0.0
26/06:30pm 17.9 15.7 12.1 69 3.2 ENE 15 20 8 11 1019.5 1019.4 0.0
26/06:00pm 18.1 15.2 12.3 69 3.2 ENE 19 22 10 12 1019.2 1019.1 0.0
26/05:30pm 18.2 15.0 12.0 67 3.4 ENE 20 26 11 14 1019.1 1019.0 0.0
26/05:00pm 19.7 17.3 12.7 64 3.9 ENE 17 20 9 11 1018.9 1018.8 0.0
26/04:30pm 19.4 17.6 13.3 68 3.5 ENE 15 22 8 12 1018.7 1018.6 0.0
26/04:00pm 19.6 16.7 12.8 65 3.8 ESE 20 30 11 16 1018.5 1018.4 0.0
26/03:30pm 20.0 17.4 13.9 68 3.5 ESE 20 32 11 17 1018.5 1018.4 0.0
26/03:00pm 20.6 17.1 14.5 68 3.6 ESE 26 35 14 19 1018.3 1018.2 0.0
26/02:30pm 21.6 18.1 14.5 64 4.2 ESE 26 35 14 19 1018.2 1018.1 0.0
26/02:00pm 22.5 19.4 14.4 60 4.8 ESE 24 33 13 18 1017.8 1017.7 0.0
26/01:30pm 22.2 19.1 13.5 57 5.0 ESE 22 33 12 18 1017.6 1017.5 0.0
26/01:00pm 21.8 19.3 14.2 62 4.4 ESE 20 30 11 16 1017.6 1017.5 0.0
26/12:30pm 22.1 20.3 13.2 57 5.1 ESE 15 22 8 12 1017.7 1017.6 0.0
26/12:00pm 22.0 20.2 14.4 62 4.5 E 17 20 9 11 1018.0 1017.9 0.0
26/11:30am 22.8 21.9 13.8 57 5.2 ESE 11 17 6 9 1018.2 1018.1 0.0
26/11:00am 21.7 20.7 13.3 59 4.8 ESE 11 17 6 9 1018.3 1018.2 0.0
26/10:30am 20.7 20.1 12.4 59 4.7 ENE 7 15 4 8 1018.7 1018.6 0.0
26/10:00am 20.7 19.3 13.4 63 4.2 ESE 13 20 7 11 1019.1 1019.0 0.0
26/09:30am 19.4 19.5 14.0 71 3.1 ESE 6 11 3 6 1019.6 1019.5 0.0
26/09:00am 18.5 18.6 13.8 74 2.7 ENE 6 11 3 6 1019.5 1019.4 0.0
26/08:30am 17.8 18.6 13.7 77 2.3 NNE 2 7 1 4 1019.7 1019.6 0.0
26/08:00am 17.2 18.2 13.3 78 2.2 CALM 0 6 0 3 1019.6 1019.5 0.0
26/07:30am 16.6 17.6 13.1 80 2.0 CALM 0 0 0 0 1019.5 1019.4 0.0
26/07:00am 16.0 17.2 13.7 86 1.3 CALM 0 2 0 1 1019.6 1019.5 0.0
26/06:30am 15.0 14.3 13.2 89 1.0 WNW 9 11 5 6 1019.5 1019.4 0.0
26/06:00am 14.7 14.3 13.1 90 0.9 NW 7 7 4 4 1019.2 1019.1 0.0
26/05:30am 15.1 14.9 13.1 88 1.1 NNW 6 7 3 4 1019.0 1018.9 0.0
26/05:00am 15.3 14.9 13.0 86 1.3 NNW 7 9 4 5 1018.9 1018.8 0.0
26/04:30am 15.9 15.0 12.6 81 1.8 NE 9 13 5 7 1018.8 1018.7 0.0
26/04:00am 15.8 14.9 12.7 82 1.7 ENE 9 13 5 7 1018.7 1018.6 0.0
26/03:30am 16.3 15.7 13.6 84 1.5 NNE 9 13 5 7 1018.7 1018.6 0.0
26/03:00am 16.2 15.8 13.1 82 1.7 N 7 9 4 5 1018.9 1018.8 0.0
26/02:30am 16.0 15.7 13.3 84 1.5 N 7 9 4 5 1019.0 1018.9 0.0
26/02:00am 15.8 15.1 13.3 85 1.4 NNE 9 11 5 6 1019.4 1019.3 0.0
26/01:30am 16.0 14.2 13.3 84 1.5 NNE 15 19 8 10 1019.6 1019.5 0.0
26/01:00am 16.3 14.1 13.2 82 1.7 NNE 17 20 9 11 1019.8 1019.7 0.0
26/12:30am 16.6 14.3 12.9 79 2.1 NE 17 20 9 11 1020.0 1019.9 0.0
26/12:00am 16.8 14.1 12.9 78 2.2 NE 19 24 10 13 1020.2 1020.1 0.0
 
Date/Time
EDT
Temp
°C
App
Temp
°C
Dew
Point
Rel
Hum
%
Delta-T
°C
Wind Press
QNH
hPa
Press
MSL
hPa
Rain
since 9 am
mm
Dir
 
Spd
km/h
Gust
km/h
Spd
kts
Gust
kts
25/11:30pm 17.0 15.1 12.9 77 2.3 NE 15 17 8 9 1020.3 1020.2 0.0
25/11:00pm 17.2 14.8 12.7 75 2.5 NNE 17 22 9 12 1020.3 1020.2 0.0

Other Formats:

Comma delimited format used in spreadsheet applications
http://www.bom.gov.au/fwo/IDN60801/IDN60801.95931.axf

JavaScript Object Notation format (JSON) in row-major order
http://www.bom.gov.au/fwo/IDN60801/IDN60801.95931.json